Flag for India Weather past 2 weeks in Aligarh, Uttar Pradesh, India

Now
84 °F

Haze.


Feels Like: 82 °F
Forecast: 83 / 110 °F
Wind: 5 mph from Southwest

Location: New Delhi Palam Airport

Current Time: May 27, 2015 at 9:31:51 AM

Latest Report: May 27, 2015 at 7:30 AM


Visibility: 1 mi

Pressure: 29.68 "Hg

Humidity: 25%

Dew point: 45 °F

Location of AligarhLocation

Historic Weather in Aligarh — Graph

°F

Aligarh temperature yesterday

Maximum temperature yesterday: 115 °F (at 3:30 PM)
Minimum temperature yesterday: 90 °F (at 3:30 AM)
Average temperature yesterday: 101 °F

Past Weeks' High & Low Weather Summary

 TemperatureHumidityPressure
High115 °F (May 26, 3:30 PM)89% (May 13, 12:30 PM)29.86 "Hg (May 13, 12:30 PM)
Low72 °F (May 20, 5:30 AM)6% (May 26, 3:30 PM)29.42 "Hg (May 23, 6:00 PM)
Average94 °F33%29.63 "Hg
* Reported May 12 8:00 AM — May 27 7:30 AM, Aligarh, Weather by CustomWeather, © 2015

Note: Actual official high and low records may vary slightly from our data, if they occured in-between our weather recording intervals... More about our weather records

Advertising

Aligarh weather history for previous 24 hours

 ConditionsComfort  
Time TempWeatherWind HumidityBarometerVisibility
7:30 AM
Wed, May 27
84 °FHaze.5 mph25%29.68 "Hg1 mi
7:00 AM82 °FHaze.5 mph28%29.68 "Hg1 mi
5:30 AM81 °FHaze.5 mph32%29.62 "Hg1 mi
5:00 AM82 °FHaze.6 mph30%29.62 "Hg2 mi
4:30 AM82 °FHaze.5 mph30%29.62 "Hg2 mi
2:30 AM86 °FHaze.5 mph25%29.62 "Hg2 mi
2:00 AM91 °FHaze.7 mph21%29.65 "Hg1 mi
1:30 AM91 °FHaze.7 mph21%29.65 "Hg1 mi
1:00 AM93 °FHaze.7 mph20%29.65 "Hg1 mi
12:30 AM93 °FHaze.7 mph21%29.65 "Hg1 mi
12:00 AM95 °FHaze.9 mph20%29.65 "Hg1 mi
11:30 PM
Tue, May 26
95 °FHaze.10 mph20%29.65 "Hg1 mi
11:00 PM97 °FHaze.10 mph19%29.65 "Hg2 mi
10:30 PM99 °FHaze.10 mph17%29.65 "Hg1 mi
10:00 PM99 °FHaze.12 mph16%29.62 "Hg1 mi
9:30 PM99 °FHaze.12 mph14%29.62 "Hg1 mi
9:00 PM99 °FHaze.7 mph12%29.59 "Hg1 mi
8:30 PM99 °FHaze.7 mph11%29.59 "Hg2 mi
8:00 PM100 °FHaze.7 mph10%29.56 "Hg2 mi
7:00 PM108 °FHaze.8 mph9%29.53 "Hg2 mi
6:30 PM111 °FHaze.8 mph9%29.53 "Hg2 mi
6:00 PM113 °FHaze.12 mph9%29.53 "Hg3 mi
5:30 PM113 °FHaze.12 mph9%29.50 "Hg3 mi
5:00 PM113 °FHaze.13 mph7%29.50 "Hg3 mi
4:30 PM115 °FHaze.14 mph7%29.53 "Hg3 mi
3:30 PM115 °FHaze.14 mph6%29.53 "Hg3 mi
3:00 PM113 °FHaze.13 mph9%29.53 "Hg2 mi
2:30 PM113 °FScattered clouds.14 mph9%29.53 "Hg2 mi
2:00 PM111 °FHaze.7 mph11%29.56 "Hg2 mi
1:30 PM111 °FHaze.7 mph11%29.56 "Hg2 mi
1:00 PM111 °FHaze.7 mph11%29.59 "Hg2 mi
12:30 PM109 °FHaze.7 mph12%29.59 "Hg2 mi
12:00 PM108 °FHaze.7 mph13%29.59 "Hg2 mi
11:00 AM104 °FHaze.7 mph14%29.62 "Hg2 mi
10:30 AM102 °FHaze.6 mph15%29.62 "Hg1 mi
10:00 AM102 °FHaze.6 mph15%29.62 "Hg1 mi
9:30 AM100 °FHaze.7 mph16%29.62 "Hg1 mi
9:00 AM100 °FHaze.6 mph16%29.62 "Hg1 mi
Weather by CustomWeather, © 2015

See weather overviewHow to use our weather pages